Location: Newark
(9.4667°S, 159.8167°E)
Time: 13:47:32
(UTC+00:00)

Vanguard 1 - All Passes

Search period start: 20 November 2019 00:00
Search period end: 30 November 2019 00:00
Orbit: 652 x 3831 km, 34.2° (Epoch: 19 November)

Date Brightness Start Highest point End Pass type
(mag) Time Alt. Az. Time Alt. Az. Time Alt. Az.
20 Nov - 06:33:21 10° N 06:36:51 16° NE 06:41:20 10° E daylight
20 Nov - 08:49:48 10° WNW 08:56:47 80° SW 09:10:15 10° SE visible
20 Nov - 11:11:42 10° WSW 11:21:41 35° SSW 11:38:17 10° SE visible
20 Nov - 13:37:02 10° SW 13:52:01 32° S 14:11:39 10° ESE visible
20 Nov - 16:02:34 10° SW 16:24:07 49° SSE 16:44:27 10° E visible
20 Nov - 18:28:54 10° SW 18:52:57 86° NW 19:09:23 10° NE visible
20 Nov - 21:00:34 10° W 21:17:10 31° NW 21:28:08 10° NNE daylight
21 Nov - 06:52:41 10° NNW 06:57:26 28° NE 07:04:35 10° ESE daylight
21 Nov - 09:10:57 10° WNW 09:18:11 59° SSW 09:31:51 10° SE visible
21 Nov - 11:33:51 10° WSW 11:44:14 31° S 12:00:40 10° SE visible
21 Nov - 13:59:05 10° SW 14:15:11 34° SSE 14:35:24 10° ESE visible
21 Nov - 16:24:06 10° SW 16:46:35 58° SSE 17:06:50 10° ENE visible
21 Nov - 18:50:51 10° WSW 19:14:24 71° NW 19:30:18 10° NE daylight
21 Nov - 21:25:07 10° W 21:38:13 22° NW 21:47:35 10° N daylight
22 Nov - 07:12:46 10° NNW 07:18:04 47° NE 07:26:55 10° ESE daylight
22 Nov - 09:32:23 10° W 09:39:52 44° SSW 09:53:25 10° SE visible
22 Nov - 11:56:04 10° WSW 12:06:58 29° S 12:23:32 10° SE visible
22 Nov - 14:20:54 10° SW 14:38:13 37° SSE 14:59:05 10° E visible
22 Nov - 16:45:35 10° SW 17:08:47 69° SSE 17:28:49 10° ENE visible
22 Nov - 19:13:08 10° WSW 19:35:41 57° NW 19:50:57 10° NNE daylight
22 Nov - 21:51:32 10° WNW 21:59:30 14° NW 22:05:54 10° NNW daylight
23 Nov - 07:33:18 10° NW 07:38:53 76° NE 07:48:48 10° ESE visible
23 Nov - 09:54:06 10° W 10:01:48 35° SSW 10:15:04 10° SE visible
23 Nov - 12:18:14 10° SW 12:29:52 28° S 12:46:55 10° ESE visible
23 Nov - 14:42:29 10° SW 15:01:01 43° SSE 15:22:29 10° E visible
23 Nov - 17:07:05 10° SW 17:30:44 81° SE 17:50:26 10° ENE visible
23 Nov - 19:35:53 10° WSW 19:56:52 44° NW 20:11:19 10° NNE daylight
24 Nov - 05:37:48 10° NNE 05:40:15 13° NE 05:43:03 10° ENE daylight
24 Nov - 07:54:12 10° WNW 07:59:57 72° SSW 08:10:21 10° SE visible
24 Nov - 10:16:03 10° WSW 10:23:59 29° S 10:36:56 10° SE visible
24 Nov - 12:40:14 10° SW 12:52:49 29° S 13:10:44 10° ESE visible
24 Nov - 15:03:54 10° SW 15:23:34 50° SSE 15:45:29 10° E visible
24 Nov - 17:28:42 10° SW 17:52:28 85° NW 18:11:43 10° NE visible
24 Nov - 19:59:19 10° W 20:18:04 33° NW 20:31:23 10° NNE daylight
25 Nov - 05:56:56 10° NNW 06:00:55 25° NE 06:06:17 10° E daylight
25 Nov - 08:15:24 10° W 08:21:19 49° SSW 08:31:44 10° SE visible
25 Nov - 10:38:10 10° WSW 10:46:22 26° S 10:59:11 10° SE visible
25 Nov - 13:01:59 10° SW 13:15:41 32° SSE 13:34:47 10° ESE visible
25 Nov - 15:25:12 10° SW 15:45:52 59° SSE 16:08:03 10° ENE visible
25 Nov - 17:50:31 10° WSW 18:14:02 71° NW 18:32:43 10° NE visible
25 Nov - 20:23:44 10° W 20:39:24 24° NW 20:51:02 10° N daylight
26 Nov - 06:17:03 10° NNW 06:21:37 46° NE 06:28:24 10° ESE daylight
26 Nov - 08:36:56 10° W 08:42:56 36° SSW 08:53:03 10° SE visible
26 Nov - 11:00:18 10° SW 11:08:55 24° S 11:21:59 10° SE visible
26 Nov - 13:23:29 10° SW 13:38:25 36° SSE 13:58:46 10° E visible
26 Nov - 15:46:30 10° SW 16:07:56 70° SE 16:30:11 10° ENE visible
26 Nov - 18:12:40 10° WSW 18:35:29 57° NW 18:53:26 10° NE visible
26 Nov - 20:49:43 10° WNW 21:00:58 17° NW 21:09:56 10° N daylight
27 Nov - 06:37:39 10° NW 06:42:27 81° NE 06:50:02 10° ESE daylight
27 Nov - 08:58:45 10° WSW 09:04:47 28° SSW 09:14:26 10° SE visible
27 Nov - 11:22:17 10° SW 11:31:34 24° S 11:45:24 10° SE visible
27 Nov - 13:44:48 10° SW 14:00:56 42° SSE 14:22:26 10° E visible
27 Nov - 16:07:51 10° SW 16:29:49 83° SE 16:51:55 10° ENE visible
27 Nov - 18:35:17 10° WSW 18:56:54 45° NW 19:13:53 10° NNE daylight
27 Nov - 21:19:49 10° NW 21:22:54 11° NW 21:25:46 10° NNW daylight
28 Nov - 04:41:49 10° NNE 04:43:46 12° NE 04:45:50 10° ENE daylight
28 Nov - 06:58:38 10° WNW 07:03:31 61° SSW 07:11:22 10° SE daylight
28 Nov - 09:20:48 10° WSW 09:26:50 23° S 09:36:00 10° SE visible
28 Nov - 11:44:01 10° SW 11:54:13 26° SSE 12:09:21 10° ESE visible
28 Nov - 14:05:59 10° SW 14:23:12 49° SSE 14:45:40 10° E visible
28 Nov - 16:29:19 10° WSW 16:51:34 84° NW 17:13:19 10° NE visible
28 Nov - 18:58:33 10° W 19:18:22 35° NW 19:34:03 10° NNE daylight
29 Nov - 05:00:57 10° NNW 05:04:36 25° NE 05:08:52 10° E daylight
29 Nov - 07:19:57 10° W 07:24:50 39° SSW 07:32:29 10° SE daylight
29 Nov - 09:42:58 10° SW 09:49:04 20° S 09:57:59 10° SE visible
29 Nov - 12:05:28 10° SW 12:16:46 29° SSE 12:33:35 10° ESE visible
29 Nov - 14:27:06 10° SW 14:45:16 59° SSE 15:08:25 10° ENE visible
29 Nov - 16:51:00 10° WSW 17:13:13 70° NW 17:34:23 10° NE visible
29 Nov - 19:22:45 10° W 19:40:00 26° NW 19:53:53 10° N daylight
